Regional Weather Roundup
Issued by NWS Charleston, SC

Current Version | Previous Version | Text Only | Print | Product List | Glossary Off
Versions: 1 2 3 4 5 6 7 8 9 10 11 12 13 14 15 16 17 18 19 20 21 22 23 24 25 26 27 28 29 30 31 32 33 34 35 36 37 38 39 40 41 42 43 44 45 46 47 48 49 50

000
ASUS42 KCHS 241328
RWRCHS

REGIONAL WEATHER ROUNDUP
NATIONAL WEATHER SERVICE CHARLESTON SC
900 AM EDT SUN JUL 24 2016

NOTE: "FAIR" INDICATES FEW OR NO CLOUDS BELOW 12,000 FEET WITH NO
SIGNIFICANT WEATHER AND/OR OBSTRUCTIONS TO VISIBILITY.

NOT ALL STATIONS ARE QUALITY CONTROLLED. USE DATA WITH CAUTION...
ESPECIALLY DEWPOINT OBSERVATIONS.

SCZ027-030-031-034>040-042>050-241400-
...SOUTHEAST SOUTH CAROLINA...

CITY           SKY/WX    TMP DP  RH WIND       PRES   REMARKS
N CHARLESTON   MOSUNNY   85  74  69 W9        30.04R HX  92
WATERFRONT PRK   N/A     84  77  79 W6        30.01S HX  94
MOUNT PLEASANT FAIR      86  75  70 SW5       30.04S HX  95
JOHNS ISLAND   FAIR      88  77  70 W9        30.04S HX 100
PINOPOLIS        N/A     81  75  83 SW6       29.97R
MONCKS CORNER  FAIR      81  72  74 SW6       30.04S
SUMMERVILLE    FAIR      82  75  78 SW3       30.05S
BEAUFORT MCAS  SUNNY     85  75  72 SW8       30.04S HX  93
BEAUFORT ARPT  FAIR      84  75  74 SW5       30.04S HX  92
HILTON HEAD IS SUNNY     90  75  62 SW6       30.05R HX 100
WALTERBORO     SUNNY     86  73  66 SW3       30.05S HX  93
ALLENDALE      FAIR      84  73  70 VRB6      30.04R HX  91

...SOUTHERN MIDLANDS AND PEE DEE...

CITY           SKY/WX    TMP DP  RH WIND       PRES   REMARKS
GEORGETOWN     FAIR      79  75  89 SW5       30.05S
KINGSTREE      FAIR      82  73  74 SW5       30.04R HAZE
ORANGEBURG     SUNNY     81  73  76 SW6       30.04R
BARNWELL       NOT AVBL
AIKEN          FAIR      82  70  65 SW7       30.08S
MANNING        FAIR      81  72  74 SW5       30.04R
COLUMBIA       MOSUNNY   85  71  63 W6        30.03R HX  90
SUMTER         CLOUDY    82  71  67 VRB5      30.01R HAZE
FLORENCE       MOSUNNY   83  74  74 W5        30.03R
MYRTLE BEACH   MOSUNNY   82  70  65 SW7       30.05R
N MYRTLE BEACH MOSUNNY   85  76  74 SW10      30.04R HX  94

$$

GAZ063-065-086>088-099>101-113>116-118-119-134>141-150-241400-
...SOUTHEAST GEORGIA...

CITY           SKY/WX    TMP DP  RH WIND       PRES   REMARKS
SAVANNAH ARPT  MOSUNNY   83  73  72 W6        30.05R
HUNTER AAF     SUNNY     83  78  84 SW7       30.03R HX  93
FORT STEWART   SUNNY     82  73  74 SW3       30.03R
STATESBORO     SUNNY     83  76  79 W5        30.05S HX  92
SYLVANIA       NOT AVBL
CLAXTON        FAIR      84  75  76 SW5       30.05S HAZE    HX  92

...CSRA...CENTRAL AND FAR SOUTHEAST GEORGIA...

CITY           SKY/WX    TMP DP  RH WIND       PRES   REMARKS
THOMSON        SUNNY     85  75  72 CALM      30.09S HX  94
AUGUSTA-BUSH   SUNNY     83  71  67 VRB5      30.03R
AUGUSTA-DANIEL SUNNY     83  71  67 VRB3      30.05R
SWAINSBORO     FAIR      81  73  78 CALM      30.07R
VIDALIA        SUNNY     84  72  65 W3        30.07R
EASTMAN        FAIR      83  70  64 CALM      30.09R
HAZLEHURST     FAIR      86  78  76 CALM      30.05S HX  97
ALMA           SUNNY     80  74  81 SW3       30.06R
WAYCROSS       SUNNY     85  77  77 SW3       30.06S HX  95
JESUP          FAIR      81  77  89 CALM      30.06S
BAXLEY         FAIR      82  79  89 CALM      30.06R HX  93
BRUNSWICK      MOSUNNY   84  77  79 SW8       30.07R HX  94
SAINT SIMONS   SUNNY     82  73  74 W8        30.06R

$$

SCZ027-028-034-036>038-045-046-048>050-GAZ119-141-241400-
...LAKE AND SUPPLEMENTAL COASTAL OBSERVATIONS...

STATION/POSITION TIME  TEMP    WIND        PRES    WAVE   SWELL
                       AIR SEA DIR/SP/G            HT/PER HT/PER/DIR
                 (UTC) (F)     (DEG/KT/KT) (MB)    (FT/S) (FT/S/D)
WINYAH BAY       1245   80     230/  3     1016.0S
LAKE MURRAY      1200   80     290/  2/  3 1015.9S
ACE BASIN NERRS  1200   81        CALM     1017.0S
FORT PULASKI     1300   84 87  220/  5/  8 1018.0R
SAPELO ISLAND    1300   83     220/  6     1018.0R

$$

ANZ835-935-AMZ111-154-330-350-352-354-370-450-454-472-241400-
...C-MAN AND BUOY OBSERVATIONS...

STATION/POSITION TIME  TEMP    WIND        PRES    WAVE   SWELL
                       AIR SEA DIR/SP/G            HT/PER HT/PER/DIR
                 (UTC) (F)     (DEG/KT/KT) (MB)    (FT/S) (FT/S/D)
BUOY 41004       1250   85 86  240/ 10/ 14 1016.8R   3/ 4   2/120/ 8
BUOY 41008       1250   84 86  200/ 12/ 14 1017.3R   3/ 8   2/100/ 8
FOLLY BEACH CMAN 1300   85     260/  5/  8 1017.3R
CAPERS NEARSHORE 1308   84 83  280/ 10/ 12 1017.2R
FRIPP NEARSHORE  1308   85 85  230/ 10/ 14 1016.8R


STATION/POSITION TIME  TEMP    WIND        PRES    WAVE   SWELL
                       AIR SEA DIR/SP/G            HT/PER HT/PER/DIR
                 (UTC) (F)     (DEG/KT/KT) (MB)    (FT/S) (FT/S/D)
5E ST. MARYS GA  1301      86                N/A     2/ 8
FRYING PAN BUOY  1300   83 85  220/  8/ 12 1017.0R
BUOY 41025       1250   84 86  260/ 12/ 16 1016.7R   3/ 4   2/130/ 9
CAPE LOOKOUT NC  1300   85     240/  5/  7 1016.8R
BUOY 41002       1250   83 84   80/  2/  4 1018.3R   2/ 9   2/120/ 9
BUOY 41010       1220   85 86   20/  2/  2 1018.1R
ST AUGUSTINE FL  1300   80 85  200/  4/  5 1019.0R


$$



USA.gov is the U.S. government's official web portal to all federal, state and local government web resources and services.